Change the Weather History Date:

Sunday, February 10, 2013

  Actual Average (KAPN) Record (KAPN)
Temperature  
Mean Temperature 22 °F 19 °F  
Max Temperature 33 °F 28 °F 55 °F (2009)
Min Temperature 12 °F 11 °F -25 °F (1994)
Degree Days  
Heating Degree Days 42 46  
Month to date heating degree days 460  
Since 1 July heating degree days 4942  
Moisture  
Dew Point 21 °F    
Average Humidity 84    
Maximum Humidity 93    
Minimum Humidity 67    
Precipitation  
Precipitation 0.00 in 0.05 in 0.71 in (1939)
Month to date precipitation 0.43  
Year to date precipitation 2.09  
Snow  
Snow 0.00 in 0.70 in 11.20 in (1981)
Month to date snowfall 6.4  
Since 1 July snowfall 55.0  
Snow Depth -    
Sea Level Pressure  
Sea Level Pressure 30.00 in    
Wind  
Wind Speed 7 mph (SE)    
Max Wind Speed 18 mph    
Max Gust Speed 26 mph    
Visibility 9 miles    
Events Rain , Snow    
T = Trace of Precipitation, MM = Missing Value Source: NWS Daily Summary

Daily Weather History Graph

Daily Weather History Graph

Search for Another Location

Airport or City:

Trip Planner

Search our weather history database for the weather conditions in past years. The results will help you decide how hot, cold, wet, or windy it might be!

Date:

Astronomy

Feb. 10, 2013 Rise Set
Actual Time 7:43 AM EST 5:55 PM EST
Civil Twilight 7:13 AM EST 6:26 PM EST
Nautical Twilight 6:38 AM EST 7:01 PM EST
Astronomical Twilight 6:04 AM EST 7:35 PM EST
Moon 7:29 AM EST (2/10) 6:50 PM EST (2/10)
Length of Visible Light 11h 13m
Length of Day
10h 11m
New Moon, 0% of the Moon is Illuminated
Feb 10
New Moon
Feb 17
First Quarter
Feb 25
Full
Mar 4
Last Quarter
Mar 11
New

Hourly Weather History & Observations

Time (EST) Temp. Windchill Dew Point Humidity Pressure Visibility Wind Dir Wind Speed Gust Speed Precip Events Conditions
12:15 AM 16.7 °F 11.2 °F 11.8 °F 81% 30.22 in 10.0 mi SSE 3.5 mph - N/A   Mostly Cloudy
12:35 AM 16.7 °F - 12.0 °F 82% 30.22 in 10.0 mi Calm Calm - N/A   Overcast
12:55 AM 15.8 °F 8.6 °F 11.3 °F 82% 30.22 in 10.0 mi ESE 4.6 mph - N/A   Overcast
1:15 AM 16.7 °F - 12.4 °F 83% 30.22 in 10.0 mi Calm Calm - N/A   Overcast
1:35 AM 15.8 °F - 11.5 °F 83% 30.22 in 10.0 mi Calm Calm - N/A   Overcast
1:56 AM 13.1 °F - 9.3 °F 85% 30.22 in 10.0 mi Calm Calm - N/A   Scattered Clouds
2:15 AM 12.6 °F 4.8 °F 10.2 °F 90% 30.20 in 10.0 mi SE 4.6 mph - N/A   Clear
2:35 AM 13.6 °F 3.5 °F 11.1 °F 90% 30.20 in 10.0 mi SSE 6.9 mph - N/A   Clear
2:55 AM 15.8 °F 7.2 °F 13.1 °F 89% 30.19 in 10.0 mi SSE 5.8 mph - N/A   Clear
3:15 AM 15.6 °F 8.3 °F 12.9 °F 89% 30.19 in 10.0 mi SSE 4.6 mph - N/A   Clear
3:35 AM 15.8 °F 5.1 °F 12.9 °F 88% 30.19 in 10.0 mi SSE 8.1 mph - N/A   Clear
3:55 AM 15.6 °F 7.0 °F 13.1 °F 90% 30.18 in 10.0 mi SSE 5.8 mph - N/A   Scattered Clouds
4:15 AM 15.3 °F 5.4 °F 12.6 °F 89% 30.18 in 10.0 mi SSE 6.9 mph - N/A   Clear
4:35 AM 14.5 °F 4.6 °F 11.8 °F 89% 30.18 in 10.0 mi SSE 6.9 mph - N/A   Clear
4:55 AM 14.0 °F 5.1 °F 11.3 °F 89% 30.17 in 10.0 mi SSE 5.8 mph - N/A   Clear
5:15 AM 13.8 °F 4.9 °F 11.3 °F 90% 30.18 in 10.0 mi SSE 5.8 mph - N/A   Clear
5:55 AM 15.3 °F 6.6 °F 12.6 °F 89% 30.18 in 10.0 mi South 5.8 mph - N/A   Scattered Clouds
6:15 AM 15.4 °F 4.6 °F 12.7 °F 89% 30.18 in 10.0 mi SSE 8.1 mph - N/A   Mostly Cloudy
6:36 AM 15.8 °F 5.1 °F 12.9 °F 88% 30.17 in 10.0 mi South 8.1 mph - N/A   Scattered Clouds
6:55 AM 15.8 °F 5.1 °F 12.9 °F 88% 30.18 in 10.0 mi SSE 8.1 mph - N/A   Scattered Clouds
7:15 AM 15.8 °F 6.1 °F 12.9 °F 88% 30.18 in 10.0 mi SSE 6.9 mph - N/A   Clear
7:35 AM 15.8 °F 5.1 °F 13.1 °F 89% 30.18 in 10.0 mi SSE 8.1 mph - N/A   Scattered Clouds
7:55 AM 16.3 °F 6.7 °F 13.5 °F 88% 30.18 in 10.0 mi SSE 6.9 mph - N/A   Scattered Clouds
8:15 AM 16.7 °F 6.2 °F 14.0 °F 89% 30.17 in 10.0 mi SSE 8.1 mph - N/A   Scattered Clouds
8:35 AM 17.2 °F 6.0 °F 14.4 °F 88% 30.17 in 7.0 mi SSE 9.2 mph - N/A   Clear
8:55 AM 18.0 °F 8.7 °F 14.9 °F 88% 30.16 in 10.0 mi SSE 6.9 mph - N/A   Clear
9:16 AM 19.0 °F 10.0 °F 15.8 °F 87% 30.15 in 10.0 mi SSE 6.9 mph - N/A   Clear
9:35 AM 19.4 °F 8.6 °F 15.8 °F 86% 30.13 in 10.0 mi SE 9.2 mph - N/A   Clear
9:55 AM 20.3 °F 11.5 °F 16.5 °F 85% 30.12 in 10.0 mi SSE 6.9 mph - N/A   Clear
10:15 AM 21.6 °F 12.1 °F 17.2 °F 83% 30.11 in 10.0 mi SSE 8.1 mph - N/A   Clear
10:35 AM 23.0 °F 14.7 °F 18.0 °F 81% 30.10 in 10.0 mi SSE 6.9 mph - N/A   Clear
10:55 AM 24.4 °F 16.5 °F 18.5 °F 78% 30.09 in 10.0 mi SE 6.9 mph - N/A   Clear
11:15 AM 24.8 °F 15.3 °F 18.5 °F 77% 30.07 in 10.0 mi SE 9.2 mph - N/A   Clear
11:35 AM 26.2 °F 17.1 °F 19.2 °F 75% 30.07 in 10.0 mi SSE 9.2 mph - N/A   Clear
11:55 AM 28.0 °F 19.3 °F 20.3 °F 73% 30.06 in 10.0 mi SSE 9.2 mph - N/A   Clear
12:15 PM 27.9 °F 19.1 °F 20.3 °F 73% 30.06 in 10.0 mi SE 9.2 mph - N/A   Scattered Clouds
12:35 PM 28.6 °F 20.7 °F 20.8 °F 73% 30.05 in 10.0 mi SE 8.1 mph - N/A   Mostly Cloudy
12:55 PM 30.0 °F 23.2 °F 21.4 °F 70% 30.03 in 10.0 mi SE 6.9 mph - N/A   Overcast
1:15 PM 30.9 °F 23.5 °F 21.7 °F 69% 30.02 in 10.0 mi SE 8.1 mph - N/A   Overcast
1:35 PM 32.0 °F 23.6 °F 22.3 °F 67% 30.02 in 10.0 mi SE 10.4 mph - N/A   Overcast
1:55 PM 32.0 °F 24.2 °F 23.4 °F 70% 30.00 in 10.0 mi SE 9.2 mph - N/A   Mostly Cloudy
2:15 PM 32.4 °F 24.6 °F 23.5 °F 70% 29.98 in 10.0 mi SE 9.2 mph - N/A   Scattered Clouds
2:35 PM 32.7 °F 25.0 °F 23.5 °F 69% 29.97 in 10.0 mi SE 9.2 mph - N/A   Clear
2:55 PM 33.1 °F 24.4 °F 23.9 °F 69% 29.97 in 10.0 mi SE 11.5 mph - N/A   Mostly Cloudy
3:15 PM 33.3 °F 26.4 °F 24.8 °F 71% 29.96 in 10.0 mi SE 8.1 mph - N/A   Overcast
3:35 PM 33.3 °F 25.1 °F 25.7 °F 74% 29.94 in 10.0 mi ESE 10.4 mph - N/A   Overcast
3:55 PM 33.3 °F 25.1 °F 25.7 °F 74% 29.93 in 10.0 mi ESE 10.4 mph - N/A   Overcast
4:15 PM 32.9 °F 25.3 °F 25.9 °F 75% 29.92 in 10.0 mi ESE 9.2 mph - N/A   Overcast
4:35 PM 32.5 °F 23.7 °F 26.4 °F 78% 29.91 in 10.0 mi ESE 11.5 mph - N/A   Overcast
4:55 PM 32.0 °F 20.8 °F 26.6 °F 80% 29.89 in 10.0 mi ESE 17.3 mph - N/A   Overcast
5:15 PM 32.0 °F 20.8 °F 26.6 °F 80% 29.88 in 10.0 mi ESE 17.3 mph 23.0 mph N/A   Overcast
5:35 PM 32.4 °F 22.1 °F 27.3 °F 82% 29.86 in 10.0 mi SE 15.0 mph 24.2 mph N/A   Overcast
5:55 PM 32.4 °F 21.3 °F 28.0 °F 84% 29.85 in 10.0 mi ESE 17.3 mph 20.7 mph N/A   Overcast
6:15 PM 32.5 °F 21.2 °F 28.4 °F 85% 29.84 in 7.0 mi SE 18.4 mph 26.5 mph N/A Snow Light Snow
6:35 PM 32.5 °F 21.9 °F 28.9 °F 87% 29.83 in 7.0 mi SE 16.1 mph 25.3 mph N/A Rain Light Rain
6:55 PM 32.4 °F 21.3 °F 29.3 °F 88% 29.82 in 7.0 mi SE 17.3 mph 20.7 mph N/A Rain Rain
7:16 PM 32.2 °F 22.7 °F 28.9 °F 88% 29.80 in 7.0 mi SE 12.7 mph 20.7 mph N/A Rain Light Rain
7:35 PM 32.4 °F 22.5 °F 28.8 °F 87% 29.78 in 7.0 mi ESE 13.8 mph 21.9 mph N/A Rain Light Rain
7:55 PM 32.4 °F 22.1 °F 29.3 °F 88% 29.77 in 5.0 mi SE 15.0 mph 18.4 mph N/A Rain Light Rain
8:15 PM 32.4 °F 22.1 °F 29.3 °F 88% 29.77 in 5.0 mi SE 15.0 mph 19.6 mph N/A Rain Light Rain
8:35 PM 32.4 °F 23.5 °F 29.3 °F 88% 29.74 in 5.0 mi SE 11.5 mph 20.7 mph N/A Rain Light Rain
8:55 PM 32.4 °F 23.5 °F 29.8 °F 90% 29.73 in 7.0 mi SE 11.5 mph - N/A Rain Light Rain
9:15 PM 32.5 °F 23.7 °F 30.0 °F 90% 29.72 in 4.0 mi SSE 11.5 mph 18.4 mph N/A Rain Light Rain
9:35 PM 32.5 °F 23.7 °F 30.2 °F 91% 29.70 in 7.0 mi SE 11.5 mph - N/A   Light Drizzle
9:56 PM 32.9 °F 25.3 °F 30.6 °F 91% 29.68 in 4.0 mi SE 9.2 mph - N/A Rain Light Rain
10:15 PM 32.9 °F 25.3 °F 30.9 °F 92% 29.66 in 5.0 mi SE 9.2 mph - N/A Rain Light Rain
10:35 PM 33.3 °F 25.1 °F 31.1 °F 92% 29.65 in 4.0 mi SE 10.4 mph - N/A Rain Light Rain
10:55 PM 33.3 °F 25.1 °F 31.5 °F 93% 29.64 in 5.0 mi SE 10.4 mph - N/A Rain Light Rain
11:15 PM 33.4 °F 25.4 °F 31.6 °F 93% 29.62 in 4.0 mi SE 10.4 mph - N/A Rain Light Rain
11:35 PM 33.8 °F 25.8 °F 31.8 °F 92% 29.61 in 4.0 mi SSE 10.4 mph - N/A Rain Light Rain
11:55 PM 33.8 °F 24.3 °F 32.0 °F 93% 29.60 in 5.0 mi SSE 13.8 mph 17.3 mph N/A Snow Light Snow